This is the latest recevied weather packets stored in our database for station/object AI9F. If no packets are shown the sender has not sent any weather packets the latest 10 day(s).
| Time | Temp. | Humidity | Pressure | Rain* | Wind** | Luminosity | Snow |
|---|---|---|---|---|---|---|---|
| 1777875466 | 14.44° C | 60% | 1009.9 hPa | 0 mm | - | 0 W/m² | - |
| 1777875163 | 13.89° C | 64% | 1009.8 hPa | 0 mm | - | 0 W/m² | - |
| 1777874860 | 13.89° C | 62% | 1010 hPa | 0 mm | - | 0 W/m² | - |
| 1777874555 | 13.89° C | 63% | 1010.1 hPa | 0 mm | - | 0 W/m² | - |
| 1777874254 | 14.44° C | 63% | 1009.9 hPa | 0 mm | - | 0 W/m² | - |
| 1777873950 | 13.89° C | 61% | 1010 hPa | 0 mm | - | 0 W/m² | - |
| 1777873647 | 13.89° C | 62% | 1009.7 hPa | 0 mm | - | 0 W/m² | - |
| 1777873345 | 14.44° C | 64% | 1009.5 hPa | 0 mm | - | 0 W/m² | - |
| 1777873041 | 14.44° C | 63% | 1009.8 hPa | 0 mm | - | 0 W/m² | - |
| 1777872738 | 14.44° C | 63% | 1009.6 hPa | 0 mm | - | 0 W/m² | - |
| 1777872435 | 14.44° C | 61% | 1009.9 hPa | 0 mm | - | 0 W/m² | - |
| 1777872134 | 14.44° C | 61% | 1010 hPa | 0 mm | - | 0 W/m² | - |
| 1777871830 | 14.44° C | 59% | 1010.1 hPa | 0 mm | - | 0 W/m² | - |
| 1777871526 | 14.44° C | 61% | 1010.3 hPa | 0 mm | - | 0 W/m² | - |
| 1777871223 | 14.44° C | 60% | 1010.2 hPa | 0 mm | - | 0 W/m² | - |
| 1777870920 | 13.89° C | 59% | 1010.2 hPa | 0 mm | - | 0 W/m² | - |
| 1777870618 | 13.89° C | 61% | 1010.5 hPa | 0 mm | - | 0 W/m² | - |
| 1777870312 | 13.89° C | 61% | 1010.4 hPa | 0 mm | - | 0 W/m² | - |
| 1777870010 | 13.89° C | 60% | 1010.4 hPa | 0 mm | - | 0 W/m² | - |
| 1777869707 | 14.44° C | 62% | 1010.5 hPa | 0 mm | - | 0 W/m² | - |
| 1777869404 | 14.44° C | 62% | 1010.6 hPa | 0 mm | - | 0 W/m² | - |
| 1777869101 | 14.44° C | 62% | 1010.4 hPa | 0 mm | - | 0 W/m² | - |
| 1777868798 | 14.44° C | 62% | 1010.6 hPa | 0 mm | - | 0 W/m² | - |
| 1777868495 | 14.44° C | 60% | 1010.8 hPa | 0 mm | - | 0 W/m² | - |
| 1777868190 | 14.44° C | 60% | 1010.9 hPa | 0 mm | - | 0 W/m² | - |
* Rain latest hour (hover to see other rain measurements)
** Current wind speed in m/s (hover to see current wind gust speed)